Torna al catalogo

SL-6 R/B(2)

AttivoHEO
NORAD 12940·ROCKET BODY·🇷🇺 Russia

Lanciato Oct 31, 1981 da Plesetsk Cosmodrome

Loading…

Prossimi Passaggi (prossime 24 ore)

TLE

AggiornatoSource: Space-Track

Epoca: Sep 14, 2026, 00:48 UTC

1 12940U 81108D   26257.03384379  .00000618  00000-0  00000-0 0  9998
2 12940  65.5323 239.1654 6752678 344.8485   2.0063  1.99089744326316

Traccia SL-6 R/B(2) in tempo reale con AllMySat

Download on the App Store